KUIPER-00220

导读

KUIPER-00220是亚马逊“柯伊伯计划”卫星互联网星座组网卫星,由法国阿丽亚娜航天负责,于2026年2月12日发射升空。该卫星旨在近地轨道构建高速卫星互联网,可为全球提供稳定网络接入服务。“柯伊伯计划”计划部署超过三千颗卫星,KUIPER-00220将助力完成大规模组网,推动卫星互联网服务落地。

Basic Information
目录编号:
67781
目录名称:
KUIPER-00220
国际标识:
2026-030T
轨道中心:
EARTH
卫星名称:
KUIPER-00220
卫星全名:
KUIPER-00220
卫星状态:
在轨 (已飞行124 天)
发射日期:
2026-02-12 UTC
国别 :
美国 (US)
星等 :
--
Orbit Information
数据来源 国际轨道数据 AOE轨道数据
星历时间 2026-06-16T09:54:20+0800
12小时前
查看轨道信息
2026-06-15T03:00:00+0800
1天前
查看轨道信息
半长轴 6912.866km 6912.606km
偏心率 0.0009417 0.0009159
轨道倾角 51.892° 51.892°
近地点辐角 59.552° 60.561°
升交点赤经 108.165° 114.141°
平近点角 300.638° 132.893°
近地点 528.219km 528.137km
远地点 541.239km 540.801km
周期 95.334分钟 95.328分钟
每日圈数 15.104822 15.105673
Detailed Information
使用方式:
暂无
2D Orbit Map
3D Orbit Map
Orbit Altitude Analysis Chart
Orbit Inclination Analysis Chart
Orbit Comprehensive Analysis Chart
View Comprehensive Chart